Year,Month,Day,Hour,Minute,Value (Times are PST for temperature in C)
2015,05,29,00,00,12.40
2015,05,29,00,01,12.40
2015,05,29,00,02,12.40
2015,05,29,00,03,12.30
2015,05,29,00,04,12.30
2015,05,29,00,05,12.30
2015,05,29,00,06,12.30
2015,05,29,00,07,12.20
2015,05,29,00,08,12.20
2015,05,29,00,09,12.20
2015,05,29,00,10,12.20
2015,05,29,00,11,12.20
2015,05,29,00,12,12.20
2015,05,29,00,13,12.20
2015,05,29,00,14,12.20
2015,05,29,00,15,12.20
2015,05,29,00,16,12.20
2015,05,29,00,17,12.10
2015,05,29,00,18,12.10
2015,05,29,00,19,12.10
2015,05,29,00,20,12.10
2015,05,29,00,21,12.10
2015,05,29,00,22,12.10
2015,05,29,00,23,12.10
2015,05,29,00,24,12.10
2015,05,29,00,25,12.10
2015,05,29,00,26,12.10
2015,05,29,00,27,12.10
2015,05,29,00,28,12.10
2015,05,29,00,29,12.20
2015,05,29,00,30,12.20
2015,05,29,00,31,12.30
2015,05,29,00,32,12.30
2015,05,29,00,33,12.30
2015,05,29,00,34,12.30
2015,05,29,00,35,12.40
2015,05,29,00,36,12.40
2015,05,29,00,37,12.50
2015,05,29,00,38,12.50
2015,05,29,00,39,12.60
2015,05,29,00,40,12.60
2015,05,29,00,41,12.60
2015,05,29,00,42,12.60
2015,05,29,00,43,12.70
2015,05,29,00,44,12.70
2015,05,29,00,45,12.70
2015,05,29,00,46,12.70
2015,05,29,00,47,12.70
2015,05,29,00,48,12.70
2015,05,29,00,49,12.70
2015,05,29,00,50,12.70
2015,05,29,00,51,12.70
2015,05,29,00,52,12.70
2015,05,29,00,53,12.70
2015,05,29,00,54,12.70
2015,05,29,00,55,12.70
2015,05,29,00,56,12.70
2015,05,29,00,57,12.60
2015,05,29,00,58,12.60
2015,05,29,00,59,12.60
2015,05,29,01,00,12.60
2015,05,29,01,01,12.60
2015,05,29,01,02,12.50
2015,05,29,01,03,12.50
2015,05,29,01,04,12.50
2015,05,29,01,05,12.40
2015,05,29,01,06,12.40
2015,05,29,01,07,12.40
2015,05,29,01,08,12.40
2015,05,29,01,09,12.30
2015,05,29,01,10,12.30
2015,05,29,01,11,12.30
2015,05,29,01,12,12.30
2015,05,29,01,13,12.30
2015,05,29,01,14,12.30
2015,05,29,01,15,12.30
2015,05,29,01,16,12.30
2015,05,29,01,17,12.30
2015,05,29,01,18,12.30
2015,05,29,01,19,12.40
2015,05,29,01,20,12.40
2015,05,29,01,21,12.40
2015,05,29,01,22,12.40
2015,05,29,01,23,12.40
2015,05,29,01,24,12.40
2015,05,29,01,25,12.40
2015,05,29,01,26,12.40
2015,05,29,01,27,12.40
2015,05,29,01,28,12.40
2015,05,29,01,29,12.50
2015,05,29,01,30,12.50
2015,05,29,01,31,12.50
2015,05,29,01,32,12.50
2015,05,29,01,33,12.40
2015,05,29,01,34,12.40
2015,05,29,01,35,12.40
2015,05,29,01,36,12.40
2015,05,29,01,37,12.40
2015,05,29,01,38,12.40
2015,05,29,01,39,12.40
2015,05,29,01,40,12.40
2015,05,29,01,41,12.40
2015,05,29,01,42,12.40
2015,05,29,01,43,12.40
2015,05,29,01,44,12.40
2015,05,29,01,45,12.40
2015,05,29,01,46,12.40
2015,05,29,01,47,12.40
2015,05,29,01,48,12.40
2015,05,29,01,49,12.40
2015,05,29,01,50,12.40
2015,05,29,01,51,12.40
2015,05,29,01,52,12.40
2015,05,29,01,53,12.40
2015,05,29,01,54,12.40
2015,05,29,01,55,12.40
2015,05,29,01,56,12.40
2015,05,29,01,57,12.40
2015,05,29,01,58,12.40
2015,05,29,01,59,12.40
2015,05,29,02,00,12.40
2015,05,29,02,01,12.40
2015,05,29,02,02,12.40
2015,05,29,02,03,12.40
2015,05,29,02,04,12.40
2015,05,29,02,05,12.40
2015,05,29,02,06,12.40
2015,05,29,02,07,12.40
2015,05,29,02,08,12.40
2015,05,29,02,09,12.50
2015,05,29,02,10,12.50
2015,05,29,02,11,12.50
2015,05,29,02,12,12.50
2015,05,29,02,13,12.50
2015,05,29,02,14,12.40
2015,05,29,02,15,12.40
2015,05,29,02,16,12.40
2015,05,29,02,17,12.40
2015,05,29,02,18,12.40
2015,05,29,02,19,12.40
2015,05,29,02,20,12.40
2015,05,29,02,21,12.40
2015,05,29,02,22,12.40
2015,05,29,02,23,12.40
2015,05,29,02,24,12.40
2015,05,29,02,25,12.40
2015,05,29,02,26,12.40
2015,05,29,02,27,12.40
2015,05,29,02,28,12.40
2015,05,29,02,29,12.40
2015,05,29,02,30,12.40
2015,05,29,02,31,12.30
2015,05,29,02,32,12.30
2015,05,29,02,33,12.30
2015,05,29,02,34,12.30
2015,05,29,02,35,12.30
2015,05,29,02,36,12.30
2015,05,29,02,37,12.40
2015,05,29,02,38,12.40
2015,05,29,02,39,12.40
2015,05,29,02,40,12.40
2015,05,29,02,41,12.40
2015,05,29,02,42,12.40
2015,05,29,02,43,12.40
2015,05,29,02,44,12.40
2015,05,29,02,45,12.40
2015,05,29,02,46,12.40
2015,05,29,02,47,12.40
2015,05,29,02,48,12.50
2015,05,29,02,49,12.50
2015,05,29,02,50,12.50
2015,05,29,02,51,12.50
2015,05,29,02,52,12.40
2015,05,29,02,53,12.40
2015,05,29,02,54,12.40
2015,05,29,02,55,12.40
2015,05,29,02,56,12.40
2015,05,29,02,57,12.40
2015,05,29,02,58,12.40
2015,05,29,02,59,12.40
2015,05,29,03,00,12.40
2015,05,29,03,01,12.40
2015,05,29,03,02,12.40
2015,05,29,03,03,12.50
2015,05,29,03,04,12.50
2015,05,29,03,05,12.50
2015,05,29,03,06,12.50
2015,05,29,03,07,12.50
2015,05,29,03,08,12.50
2015,05,29,03,09,12.50
2015,05,29,03,10,12.50
2015,05,29,03,11,12.50
2015,05,29,03,12,12.50
2015,05,29,03,13,12.50
2015,05,29,03,14,12.50
2015,05,29,03,15,12.50
2015,05,29,03,16,12.50
2015,05,29,03,17,12.50
2015,05,29,03,18,12.50
2015,05,29,03,19,12.50
2015,05,29,03,20,12.50
2015,05,29,03,21,12.40
2015,05,29,03,22,12.40
2015,05,29,03,23,12.40
2015,05,29,03,24,12.40
2015,05,29,03,25,12.40
2015,05,29,03,26,12.40
2015,05,29,03,27,12.40
2015,05,29,03,28,12.40
2015,05,29,03,29,12.40
2015,05,29,03,30,12.40
2015,05,29,03,31,12.40
2015,05,29,03,32,12.40
2015,05,29,03,33,12.40
2015,05,29,03,34,12.40
2015,05,29,03,35,12.40
2015,05,29,03,36,12.40
2015,05,29,03,37,12.40
2015,05,29,03,38,12.40
2015,05,29,03,39,12.30
2015,05,29,03,40,12.30
2015,05,29,03,41,12.30
2015,05,29,03,42,12.30
2015,05,29,03,43,12.30
2015,05,29,03,44,12.30
2015,05,29,03,45,12.30
2015,05,29,03,46,12.30
2015,05,29,03,47,12.20
2015,05,29,03,48,12.20
2015,05,29,03,49,12.20
2015,05,29,03,50,12.10
2015,05,29,03,51,12.10
2015,05,29,03,52,12.00
2015,05,29,03,53,12.00
2015,05,29,03,54,12.00
2015,05,29,03,55,11.90
2015,05,29,03,56,11.90
2015,05,29,03,57,11.90
2015,05,29,03,58,11.90
2015,05,29,03,59,11.80
2015,05,29,04,00,11.80
2015,05,29,04,01,11.80
2015,05,29,04,02,11.80
2015,05,29,04,03,11.80
2015,05,29,04,04,11.80
2015,05,29,04,05,11.80
2015,05,29,04,06,11.70
2015,05,29,04,07,11.70
2015,05,29,04,08,11.70
2015,05,29,04,09,11.70
2015,05,29,04,10,11.70
2015,05,29,04,11,11.60
2015,05,29,04,12,11.60
2015,05,29,04,13,11.60
2015,05,29,04,14,11.60
2015,05,29,04,15,11.60
2015,05,29,04,16,11.60
2015,05,29,04,17,11.60
2015,05,29,04,18,11.60
2015,05,29,04,19,11.50
2015,05,29,04,20,11.40
2015,05,29,04,21,11.40
2015,05,29,04,22,11.40
2015,05,29,04,23,11.40
2015,05,29,04,24,11.40
2015,05,29,04,25,11.40
2015,05,29,04,26,11.40
2015,05,29,04,27,11.40
2015,05,29,04,28,11.30
2015,05,29,04,29,11.30
2015,05,29,04,30,11.30
2015,05,29,04,31,11.30
2015,05,29,04,32,11.30
2015,05,29,04,33,11.30
2015,05,29,04,34,11.30
2015,05,29,04,35,11.30
2015,05,29,04,36,11.30
2015,05,29,04,37,11.30
2015,05,29,04,38,11.30
2015,05,29,04,39,11.30
2015,05,29,04,40,11.30
2015,05,29,04,41,11.30
2015,05,29,04,42,11.30
2015,05,29,04,43,11.30
2015,05,29,04,44,11.30
2015,05,29,04,45,11.30
2015,05,29,04,46,11.30
2015,05,29,04,47,11.20
2015,05,29,04,48,11.20
2015,05,29,04,49,11.20
2015,05,29,04,50,11.20
2015,05,29,04,51,11.10
2015,05,29,04,52,11.10
2015,05,29,04,53,11.10
2015,05,29,04,54,11.10
2015,05,29,04,55,11.00
2015,05,29,04,56,10.90
2015,05,29,04,57,10.90
2015,05,29,04,58,10.90
2015,05,29,04,59,10.90
2015,05,29,05,00,10.90
2015,05,29,05,01,10.90
2015,05,29,05,02,10.90
2015,05,29,05,03,10.90
2015,05,29,05,04,10.90
2015,05,29,05,05,10.90
2015,05,29,05,06,10.90
2015,05,29,05,07,10.90
2015,05,29,05,08,10.90
2015,05,29,05,09,10.90
2015,05,29,05,10,10.90
2015,05,29,05,11,10.90
2015,05,29,05,12,10.90
2015,05,29,05,13,10.90
2015,05,29,05,14,10.90
2015,05,29,05,15,10.90
2015,05,29,05,16,10.90
2015,05,29,05,17,10.90
2015,05,29,05,18,10.90
2015,05,29,05,19,10.90
2015,05,29,05,20,10.90
2015,05,29,05,21,10.90
2015,05,29,05,22,10.90
2015,05,29,05,23,10.90
2015,05,29,05,24,10.80
2015,05,29,05,25,10.80
2015,05,29,05,26,10.80
2015,05,29,05,27,10.70
2015,05,29,05,28,10.70
2015,05,29,05,29,10.60
2015,05,29,05,30,10.60
2015,05,29,05,31,10.60
2015,05,29,05,32,10.60
2015,05,29,05,33,10.60
2015,05,29,05,34,10.60
2015,05,29,05,35,10.60
2015,05,29,05,36,10.60
2015,05,29,05,37,10.60
2015,05,29,05,38,10.60
2015,05,29,05,39,10.60
2015,05,29,05,40,10.60
2015,05,29,05,41,10.60
2015,05,29,05,42,10.60
2015,05,29,05,43,10.60
2015,05,29,05,44,10.60
2015,05,29,05,45,10.60
2015,05,29,05,46,10.60
2015,05,29,05,47,10.60
2015,05,29,05,48,10.60
2015,05,29,05,49,10.60
2015,05,29,05,50,10.60
2015,05,29,05,51,10.60
2015,05,29,05,52,10.60
2015,05,29,05,53,10.70
2015,05,29,05,54,10.70
2015,05,29,05,55,10.70
2015,05,29,05,56,10.80
2015,05,29,05,57,10.80
2015,05,29,05,58,10.80
2015,05,29,05,59,10.80
2015,05,29,06,00,10.80
2015,05,29,06,01,10.80
2015,05,29,06,02,10.80
2015,05,29,06,03,10.80
2015,05,29,06,04,10.80
2015,05,29,06,05,10.90
2015,05,29,06,06,10.90
2015,05,29,06,07,10.90
2015,05,29,06,08,10.90
2015,05,29,06,09,10.90
2015,05,29,06,10,10.90
2015,05,29,06,11,10.90
2015,05,29,06,12,10.90
2015,05,29,06,13,10.90
2015,05,29,06,14,10.90
2015,05,29,06,15,10.90
2015,05,29,06,16,10.90
2015,05,29,06,17,10.90
2015,05,29,06,18,10.90
2015,05,29,06,19,10.90
2015,05,29,06,20,10.90
2015,05,29,06,21,10.90
2015,05,29,06,22,10.90
2015,05,29,06,23,10.90
2015,05,29,06,24,10.90
2015,05,29,06,25,10.90
2015,05,29,06,26,11.00
2015,05,29,06,27,11.10
2015,05,29,06,28,11.10
2015,05,29,06,29,11.10
2015,05,29,06,30,11.10
2015,05,29,06,31,11.10
2015,05,29,06,32,11.10
2015,05,29,06,33,11.10
2015,05,29,06,34,11.10
2015,05,29,06,35,11.20
2015,05,29,06,36,11.20
2015,05,29,06,37,11.20
2015,05,29,06,38,11.30
2015,05,29,06,39,11.30
2015,05,29,06,40,11.30
2015,05,29,06,41,11.30
2015,05,29,06,42,11.40
2015,05,29,06,43,11.40
2015,05,29,06,44,11.40
2015,05,29,06,45,11.40
2015,05,29,06,46,11.60
2015,05,29,06,47,11.60
2015,05,29,06,48,11.60
2015,05,29,06,49,11.70
2015,05,29,06,50,11.80
2015,05,29,06,51,11.80
2015,05,29,06,52,11.90
2015,05,29,06,53,12.00
2015,05,29,06,54,12.00
2015,05,29,06,55,12.10
2015,05,29,06,56,12.20
2015,05,29,06,57,12.30
2015,05,29,06,58,12.30
2015,05,29,06,59,12.40
2015,05,29,07,00,12.50
2015,05,29,07,01,12.50
2015,05,29,07,02,12.60
2015,05,29,07,03,12.70
2015,05,29,07,04,12.70
2015,05,29,07,05,12.80
2015,05,29,07,06,12.90
2015,05,29,07,07,13.00
2015,05,29,07,08,13.00
2015,05,29,07,09,13.10
2015,05,29,07,10,13.20
2015,05,29,07,11,13.30
2015,05,29,07,12,13.40
2015,05,29,07,13,13.50
2015,05,29,07,14,13.60
2015,05,29,07,15,13.70
2015,05,29,07,16,13.80
2015,05,29,07,17,13.90
2015,05,29,07,18,14.00
2015,05,29,07,19,14.10
2015,05,29,07,20,14.20
2015,05,29,07,21,14.30
2015,05,29,07,22,14.50
2015,05,29,07,23,14.60
2015,05,29,07,24,14.60
2015,05,29,07,25,14.70
2015,05,29,07,26,14.80
2015,05,29,07,27,14.80
2015,05,29,07,28,14.90
2015,05,29,07,29,15.00
2015,05,29,07,30,15.10
2015,05,29,07,31,15.20
2015,05,29,07,32,15.30
2015,05,29,07,33,15.40
2015,05,29,07,34,15.50
2015,05,29,07,35,15.60
2015,05,29,07,36,15.60
2015,05,29,07,37,15.70
2015,05,29,07,38,15.80
2015,05,29,07,39,15.80
2015,05,29,07,40,15.80
2015,05,29,07,41,15.80
2015,05,29,07,42,15.80
2015,05,29,07,43,15.80
2015,05,29,07,44,15.90
2015,05,29,07,45,15.90
2015,05,29,07,46,16.10
2015,05,29,07,47,16.10
2015,05,29,07,48,16.20
2015,05,29,07,49,16.20
2015,05,29,07,50,16.20
2015,05,29,07,51,16.20
2015,05,29,07,52,16.30
2015,05,29,07,53,16.40
2015,05,29,07,54,16.40
2015,05,29,07,55,16.50
2015,05,29,07,56,16.60
2015,05,29,07,57,16.70
2015,05,29,07,58,16.70
2015,05,29,07,59,16.80
2015,05,29,08,00,16.90
2015,05,29,08,01,16.90
2015,05,29,08,02,17.00
2015,05,29,08,03,17.00
2015,05,29,08,04,17.00
2015,05,29,08,05,17.10
2015,05,29,08,06,17.20
2015,05,29,08,07,17.30
2015,05,29,08,08,17.30
2015,05,29,08,09,17.40
2015,05,29,08,10,17.50
2015,05,29,08,11,17.60
2015,05,29,08,12,17.60
2015,05,29,08,13,17.60
2015,05,29,08,14,17.60
2015,05,29,08,15,17.60
2015,05,29,08,16,17.60
2015,05,29,08,17,17.60
2015,05,29,08,18,17.60
2015,05,29,08,19,17.60
2015,05,29,08,20,17.60
2015,05,29,08,21,17.60
2015,05,29,08,22,17.60
2015,05,29,08,23,17.60
2015,05,29,08,24,17.60
2015,05,29,08,25,17.60
2015,05,29,08,26,17.60
2015,05,29,08,27,17.60
2015,05,29,08,28,17.50
2015,05,29,08,29,17.50
2015,05,29,08,30,17.40
2015,05,29,08,31,17.40
2015,05,29,08,32,17.40
2015,05,29,08,33,17.40
2015,05,29,08,34,17.40
2015,05,29,08,35,17.50
2015,05,29,08,36,17.50
2015,05,29,08,37,17.50
2015,05,29,08,38,17.50
2015,05,29,08,39,17.60
2015,05,29,08,40,17.50
2015,05,29,08,41,17.50
2015,05,29,08,42,17.50
2015,05,29,08,43,17.50
2015,05,29,08,44,17.40
2015,05,29,08,45,17.40
2015,05,29,08,46,17.30
2015,05,29,08,47,17.30
2015,05,29,08,48,17.30
2015,05,29,08,49,17.30
2015,05,29,08,50,17.30
2015,05,29,08,51,17.30
2015,05,29,08,52,17.30
2015,05,29,08,53,17.30
2015,05,29,08,54,17.30
2015,05,29,08,55,17.30
2015,05,29,08,56,17.30
2015,05,29,08,57,17.30
2015,05,29,08,58,17.30
2015,05,29,08,59,17.30
2015,05,29,09,00,17.30
2015,05,29,09,01,17.30
2015,05,29,09,02,17.30
2015,05,29,09,03,17.30
2015,05,29,09,04,17.40
2015,05,29,09,05,17.40
2015,05,29,09,06,17.50
2015,05,29,09,07,17.60
2015,05,29,09,08,17.70
2015,05,29,09,09,17.70
2015,05,29,09,10,17.70
2015,05,29,09,11,17.60
2015,05,29,09,12,17.60
2015,05,29,09,13,17.50
2015,05,29,09,14,17.60
2015,05,29,09,15,17.60
2015,05,29,09,16,17.60
2015,05,29,09,17,17.60
2015,05,29,09,18,17.60
2015,05,29,09,19,17.60
2015,05,29,09,20,17.60
2015,05,29,09,21,17.60
2015,05,29,09,22,17.70
2015,05,29,09,23,17.70
2015,05,29,09,24,17.70
2015,05,29,09,25,17.70
2015,05,29,09,26,17.70
2015,05,29,09,27,17.60
2015,05,29,09,28,17.50
2015,05,29,09,29,17.50
2015,05,29,09,30,17.50
2015,05,29,09,31,17.50
2015,05,29,09,32,17.60
2015,05,29,09,33,17.70
2015,05,29,09,34,17.70
2015,05,29,09,35,17.80
2015,05,29,09,36,17.70
2015,05,29,09,37,17.80
2015,05,29,09,38,17.80
2015,05,29,09,39,17.90
2015,05,29,09,40,17.90
2015,05,29,09,41,17.90
2015,05,29,09,42,17.90
2015,05,29,09,43,17.90
2015,05,29,09,44,17.90
2015,05,29,09,45,17.90
2015,05,29,09,46,18.00
2015,05,29,09,47,18.10
2015,05,29,09,48,18.10
2015,05,29,09,49,18.10
2015,05,29,09,50,18.20
2015,05,29,09,51,18.20
2015,05,29,09,52,18.20
2015,05,29,09,53,18.20
2015,05,29,09,54,18.20
2015,05,29,09,55,18.30
2015,05,29,09,56,18.30
2015,05,29,09,57,18.40
2015,05,29,09,58,18.40
2015,05,29,09,59,18.40
2015,05,29,10,00,18.40
2015,05,29,10,01,18.40
2015,05,29,10,02,18.40
2015,05,29,10,03,18.40
2015,05,29,10,04,18.40
2015,05,29,10,05,18.40
2015,05,29,10,06,18.40
2015,05,29,10,07,18.40
2015,05,29,10,08,18.40
2015,05,29,10,09,18.40
2015,05,29,10,10,18.50
2015,05,29,10,11,18.50
2015,05,29,10,12,18.50
2015,05,29,10,13,18.40
2015,05,29,10,14,18.40
2015,05,29,10,15,18.40
2015,05,29,10,16,18.30
2015,05,29,10,17,18.30
2015,05,29,10,18,18.20
2015,05,29,10,19,18.20
2015,05,29,10,20,18.20
2015,05,29,10,21,18.20
2015,05,29,10,22,18.20
2015,05,29,10,23,18.20
2015,05,29,10,24,18.10
2015,05,29,10,25,18.10
2015,05,29,10,26,18.00
2015,05,29,10,27,17.90
2015,05,29,10,28,17.80
2015,05,29,10,29,17.80
2015,05,29,10,30,17.80
2015,05,29,10,31,17.80
2015,05,29,10,32,17.80
2015,05,29,10,33,17.80
2015,05,29,10,34,17.90
2015,05,29,10,35,17.90
2015,05,29,10,36,17.90
2015,05,29,10,37,18.00
2015,05,29,10,38,18.10
2015,05,29,10,39,18.20
2015,05,29,10,40,18.20
2015,05,29,10,41,18.20
2015,05,29,10,42,18.20
2015,05,29,10,43,18.30
2015,05,29,10,44,18.30
2015,05,29,10,45,18.40
2015,05,29,10,46,18.40
2015,05,29,10,47,18.40
2015,05,29,10,48,18.50
2015,05,29,10,49,18.50
2015,05,29,10,50,18.60
2015,05,29,10,51,18.60
2015,05,29,10,52,18.60
2015,05,29,10,53,18.60
2015,05,29,10,54,18.60
2015,05,29,10,55,18.60
2015,05,29,10,56,18.60
2015,05,29,10,57,18.60
2015,05,29,10,58,18.60
2015,05,29,10,59,18.60
2015,05,29,11,00,18.60
2015,05,29,11,01,18.70
2015,05,29,11,02,18.80
2015,05,29,11,03,18.90
2015,05,29,11,04,18.90
2015,05,29,11,05,19.10
2015,05,29,11,06,19.10
2015,05,29,11,07,19.10
2015,05,29,11,08,19.10
2015,05,29,11,09,19.20
2015,05,29,11,10,19.10
2015,05,29,11,11,19.20
2015,05,29,11,12,19.30
2015,05,29,11,13,19.30
2015,05,29,11,14,19.30
2015,05,29,11,15,19.30
2015,05,29,11,16,19.40
2015,05,29,11,17,19.40
2015,05,29,11,18,19.40
2015,05,29,11,19,19.40
2015,05,29,11,20,19.50
2015,05,29,11,21,19.60
2015,05,29,11,22,19.60
2015,05,29,11,23,19.60
2015,05,29,11,24,19.60
2015,05,29,11,25,19.70
2015,05,29,11,26,19.60
2015,05,29,11,27,19.60
2015,05,29,11,28,19.60
2015,05,29,11,29,19.70
2015,05,29,11,30,19.70
2015,05,29,11,31,19.60
2015,05,29,11,32,19.50
2015,05,29,11,33,19.40
2015,05,29,11,34,19.20
2015,05,29,11,35,19.20
2015,05,29,11,36,19.20
2015,05,29,11,37,19.20
2015,05,29,11,38,19.20
2015,05,29,11,39,19.10
2015,05,29,11,40,19.10
2015,05,29,11,41,19.10
2015,05,29,11,42,19.10
2015,05,29,11,43,19.10
2015,05,29,11,44,19.10
2015,05,29,11,45,19.10
2015,05,29,11,46,19.10
2015,05,29,11,47,19.10
2015,05,29,11,48,19.10
2015,05,29,11,49,19.20
2015,05,29,11,50,19.20
2015,05,29,11,51,19.30
2015,05,29,11,52,19.50
2015,05,29,11,53,19.60
2015,05,29,11,54,19.70
2015,05,29,11,55,19.80
2015,05,29,11,56,19.90
2015,05,29,11,57,19.90
2015,05,29,11,58,20.00
2015,05,29,11,59,20.10
2015,05,29,12,00,20.20
2015,05,29,12,01,20.40
2015,05,29,12,02,20.70
2015,05,29,12,03,20.90
2015,05,29,12,04,21.10
2015,05,29,12,05,21.20
2015,05,29,12,06,21.30
2015,05,29,12,07,21.40
2015,05,29,12,08,21.60
2015,05,29,12,09,21.80
2015,05,29,12,10,21.90
2015,05,29,12,11,22.00
2015,05,29,12,12,22.00
2015,05,29,12,13,22.00
2015,05,29,12,14,21.90
2015,05,29,12,15,22.00
2015,05,29,12,16,22.00
2015,05,29,12,17,22.00
2015,05,29,12,18,22.00
2015,05,29,12,19,22.10
2015,05,29,12,20,22.10
2015,05,29,12,21,22.20
2015,05,29,12,22,22.30
2015,05,29,12,23,22.40
2015,05,29,12,24,22.40
2015,05,29,12,25,22.40
2015,05,29,12,26,22.50
2015,05,29,12,27,22.50
2015,05,29,12,28,22.60
2015,05,29,12,29,22.60
2015,05,29,12,30,22.50
2015,05,29,12,31,22.50
2015,05,29,12,32,22.50
2015,05,29,12,33,22.40
2015,05,29,12,34,22.50
2015,05,29,12,35,22.50
2015,05,29,12,36,22.50
2015,05,29,12,37,22.50
2015,05,29,12,38,22.60
2015,05,29,12,39,22.60
2015,05,29,12,40,22.60
2015,05,29,12,41,22.50
2015,05,29,12,42,22.50
2015,05,29,12,43,22.50
2015,05,29,12,44,22.50
2015,05,29,12,45,22.60
2015,05,29,12,46,22.60
2015,05,29,12,47,22.50
2015,05,29,12,48,22.50
2015,05,29,12,49,22.50
2015,05,29,12,50,22.60
2015,05,29,12,51,22.60
2015,05,29,12,52,22.50
2015,05,29,12,53,22.40
2015,05,29,12,54,22.30
2015,05,29,12,55,22.40
2015,05,29,12,56,22.50
2015,05,29,12,57,22.50
2015,05,29,12,58,22.50
2015,05,29,12,59,22.50
2015,05,29,13,00,22.50
2015,05,29,13,01,22.40
2015,05,29,13,02,22.30
2015,05,29,13,03,22.20
2015,05,29,13,04,22.20
2015,05,29,13,05,22.20
2015,05,29,13,06,22.20
2015,05,29,13,07,22.30
2015,05,29,13,08,22.20
2015,05,29,13,09,22.20
2015,05,29,13,10,22.20
2015,05,29,13,11,22.20
2015,05,29,13,12,22.10
2015,05,29,13,13,22.10
2015,05,29,13,14,22.10
2015,05,29,13,15,22.00
2015,05,29,13,16,21.90
2015,05,29,13,17,21.90
2015,05,29,13,18,21.90
2015,05,29,13,19,21.90
2015,05,29,13,20,22.00
2015,05,29,13,21,22.10
2015,05,29,13,22,22.30
2015,05,29,13,23,22.30
2015,05,29,13,24,22.20
2015,05,29,13,25,22.20
2015,05,29,13,26,22.20
2015,05,29,13,27,22.10
2015,05,29,13,28,22.10
2015,05,29,13,29,22.30
2015,05,29,13,30,22.40
2015,05,29,13,31,22.40
2015,05,29,13,32,22.30
2015,05,29,13,33,22.30
2015,05,29,13,34,22.30
2015,05,29,13,35,22.40
2015,05,29,13,36,22.40
2015,05,29,13,37,22.50
2015,05,29,13,38,22.60
2015,05,29,13,39,22.60
2015,05,29,13,40,22.60
2015,05,29,13,41,22.70
2015,05,29,13,42,22.70
2015,05,29,13,43,22.70
2015,05,29,13,44,22.60
2015,05,29,13,45,22.60
2015,05,29,13,46,22.50
2015,05,29,13,47,22.60
2015,05,29,13,48,22.60
2015,05,29,13,49,22.60
2015,05,29,13,50,22.70
2015,05,29,13,51,22.80
2015,05,29,13,52,22.90
2015,05,29,13,53,22.90
2015,05,29,13,54,23.00
2015,05,29,13,55,23.10
2015,05,29,13,56,23.10
2015,05,29,13,57,23.20
2015,05,29,13,58,23.20
2015,05,29,13,59,23.30
2015,05,29,14,00,23.30
2015,05,29,14,01,23.30
2015,05,29,14,02,23.30
2015,05,29,14,03,23.30
2015,05,29,14,04,23.40
2015,05,29,14,05,23.40
2015,05,29,14,06,23.40
2015,05,29,14,07,23.30
2015,05,29,14,08,23.30
2015,05,29,14,09,23.30
2015,05,29,14,10,23.30
2015,05,29,14,11,23.30
2015,05,29,14,12,23.40
2015,05,29,14,13,23.40
2015,05,29,14,14,23.30
2015,05,29,14,15,23.30
2015,05,29,14,16,23.30
2015,05,29,14,17,23.30
2015,05,29,14,18,23.30
2015,05,29,14,19,23.30
2015,05,29,14,20,23.20
2015,05,29,14,21,23.10
2015,05,29,14,22,23.10
2015,05,29,14,23,23.10
2015,05,29,14,24,23.00
2015,05,29,14,25,23.00
2015,05,29,14,26,23.00
2015,05,29,14,27,23.10
2015,05,29,14,28,23.10
2015,05,29,14,29,23.10
2015,05,29,14,30,23.20
2015,05,29,14,31,23.20
2015,05,29,14,32,23.30
2015,05,29,14,33,23.30
2015,05,29,14,34,23.40
2015,05,29,14,35,23.50
2015,05,29,14,36,23.60
2015,05,29,14,37,23.70
2015,05,29,14,38,23.70
2015,05,29,14,39,23.70
2015,05,29,14,40,23.80
2015,05,29,14,41,23.90
2015,05,29,14,42,24.00
2015,05,29,14,43,24.10
2015,05,29,14,44,24.20
2015,05,29,14,45,24.20
2015,05,29,14,46,24.30
2015,05,29,14,47,24.40
2015,05,29,14,48,24.50
2015,05,29,14,49,24.60
2015,05,29,14,50,24.70
2015,05,29,14,51,24.80
2015,05,29,14,52,24.80
2015,05,29,14,53,24.80
2015,05,29,14,54,24.80
2015,05,29,14,55,24.70
2015,05,29,14,56,24.70
2015,05,29,14,57,24.60
2015,05,29,14,58,24.50
2015,05,29,14,59,24.30
2015,05,29,15,00,24.30
2015,05,29,15,01,24.30
2015,05,29,15,02,24.40
2015,05,29,15,03,24.50
2015,05,29,15,04,24.60
2015,05,29,15,05,24.60
2015,05,29,15,06,24.70
2015,05,29,15,07,24.70
2015,05,29,15,08,24.70
2015,05,29,15,09,24.70
2015,05,29,15,10,24.80
2015,05,29,15,11,24.80
2015,05,29,15,12,24.90
2015,05,29,15,13,24.90
2015,05,29,15,14,25.10
2015,05,29,15,15,25.20
2015,05,29,15,16,25.20
2015,05,29,15,17,25.20
2015,05,29,15,18,25.20
2015,05,29,15,19,25.20
2015,05,29,15,20,25.20
2015,05,29,15,21,25.30
2015,05,29,15,22,25.40
2015,05,29,15,23,25.40
2015,05,29,15,24,25.50
2015,05,29,15,25,25.50
2015,05,29,15,26,25.50
2015,05,29,15,27,25.50
2015,05,29,15,28,25.50
2015,05,29,15,29,25.50
2015,05,29,15,30,25.50
2015,05,29,15,31,25.40
2015,05,29,15,32,25.40
2015,05,29,15,33,25.40
2015,05,29,15,34,25.40
2015,05,29,15,35,25.40
2015,05,29,15,36,25.50
2015,05,29,15,37,25.50
2015,05,29,15,38,25.50
2015,05,29,15,39,25.50
2015,05,29,15,40,25.50
2015,05,29,15,41,25.40
2015,05,29,15,42,25.50
2015,05,29,15,43,25.50
2015,05,29,15,44,25.60
2015,05,29,15,45,25.60
2015,05,29,15,46,25.50
2015,05,29,15,47,25.50
2015,05,29,15,48,25.60
2015,05,29,15,49,25.60
2015,05,29,15,50,25.50
2015,05,29,15,51,25.50
2015,05,29,15,52,25.50
2015,05,29,15,53,25.60
2015,05,29,15,54,25.70
2015,05,29,15,55,25.80
2015,05,29,15,56,25.80
2015,05,29,15,57,25.80
2015,05,29,15,58,25.80
2015,05,29,15,59,25.70
2015,05,29,16,00,25.70
2015,05,29,16,01,25.60
2015,05,29,16,02,25.60
2015,05,29,16,03,25.60
2015,05,29,16,04,25.60
2015,05,29,16,05,25.70
2015,05,29,16,06,25.80
2015,05,29,16,07,25.90
2015,05,29,16,08,25.90
2015,05,29,16,09,25.90
2015,05,29,16,10,25.90
2015,05,29,16,11,26.00
2015,05,29,16,12,26.00
2015,05,29,16,13,25.90
2015,05,29,16,14,25.80
2015,05,29,16,15,25.80
2015,05,29,16,16,25.80
2015,05,29,16,17,25.80
2015,05,29,16,18,25.80
2015,05,29,16,19,25.70
2015,05,29,16,20,25.80
2015,05,29,16,21,25.80
2015,05,29,16,22,25.80
2015,05,29,16,23,25.90
2015,05,29,16,24,25.90
2015,05,29,16,25,26.00
2015,05,29,16,26,26.00
2015,05,29,16,27,26.10
2015,05,29,16,28,26.10
2015,05,29,16,29,26.10
2015,05,29,16,30,26.10
2015,05,29,16,31,26.10
2015,05,29,16,32,26.10
2015,05,29,16,33,26.10
2015,05,29,16,34,26.20
2015,05,29,16,35,26.20
2015,05,29,16,36,26.30
2015,05,29,16,37,26.30
2015,05,29,16,38,26.30
2015,05,29,16,39,26.30
2015,05,29,16,40,26.30
2015,05,29,16,41,26.30
2015,05,29,16,42,26.20
2015,05,29,16,43,26.20
2015,05,29,16,44,26.20
2015,05,29,16,45,26.20
2015,05,29,16,46,26.20
2015,05,29,16,47,26.20
2015,05,29,16,48,26.20
2015,05,29,16,49,26.20
2015,05,29,16,50,26.20
2015,05,29,16,51,26.20
2015,05,29,16,52,26.20
2015,05,29,16,53,26.20
2015,05,29,16,54,26.30
2015,05,29,16,55,26.30
2015,05,29,16,56,26.20
2015,05,29,16,57,26.20
2015,05,29,16,58,26.20
2015,05,29,16,59,26.20
2015,05,29,17,00,26.20
2015,05,29,17,01,26.20
2015,05,29,17,02,26.10
2015,05,29,17,03,26.10
2015,05,29,17,04,26.20
2015,05,29,17,05,26.20
2015,05,29,17,06,26.20
2015,05,29,17,07,26.30
2015,05,29,17,08,26.30
2015,05,29,17,09,26.40
2015,05,29,17,10,26.50
2015,05,29,17,11,26.50
2015,05,29,17,12,26.40
2015,05,29,17,13,26.40
2015,05,29,17,14,26.40
2015,05,29,17,15,26.40
2015,05,29,17,16,26.30
2015,05,29,17,17,26.40
2015,05,29,17,18,26.40
2015,05,29,17,19,26.40